Weather History for KRTN - March, 2013

Change the Weather History Date:

Sunday, March 3, 2013

  Actual Average (KTAD) Record (KTAD)
Temperature  
Mean Temperature 48 °F 39 °F  
Max Temperature 68 °F 54 °F 74 °F (2009)
Min Temperature 28 °F 24 °F -10 °F (1960)
Degree Days  
Heating Degree Days 17 26  
Month to date heating degree days 79  
Since 1 July heating degree days 4201  
Cooling Degree Days 0 0  
Month to date cooling degree days 0  
Year to date cooling degree days 0  
Moisture  
Dew Point 17 °F    
Average Humidity 38    
Maximum Humidity 69    
Minimum Humidity 8    
Precipitation  
Precipitation 0.00 in 0.03 in 0.31 in (1982)
Month to date precipitation 0.08  
Year to date precipitation 0.97  
Sea Level Pressure  
Sea Level Pressure 29.79 in    
Wind  
Wind Speed 8 mph (NNW)    
Max Wind Speed 26 mph    
Max Gust Speed 43 mph    
Visibility 10 miles    
Events      
T = Trace of Precipitation, MM = Missing Value Source: NWS Daily Summary

Daily Weather History Graph

Daily Weather History Graph

Search for Another Location

Airport or City:

Trip Planner

Search our weather history database for the weather conditions in past years. The results will help you decide how hot, cold, wet, or windy it might be!

Date:

Astronomy

Mar. 03, 2013 Rise Set
Actual Time 6:25 AM MST 5:54 PM MST
Civil Twilight 5:59 AM MST 6:20 PM MST
Nautical Twilight 5:29 AM MST 6:50 PM MST
Astronomical Twilight 4:59 AM MST 7:20 PM MST
Moon No Moon Rise 9:53 AM MST (3/3)
Length of Visible Light 12h 20m
Length of Day
11h 29m
Waning Gibbous, 63% of the Moon is Illuminated
Mar 3
Waning Gibbous
Mar 4
Last Quarter
Mar 11
New
Mar 19
First Quarter
Mar 27
Full

Hourly Weather History & Observations

Time (MST) Temp. Windchill Dew Point Humidity Pressure Visibility Wind Dir Wind Speed Gust Speed Precip Events Conditions
12:53 AM 30.9 °F 24.3 °F 19.9 °F 64% 30.05 in 10.0 mi NE 6.9 mph - N/A   Clear
1:53 AM 28.9 °F 22.8 °F 19.9 °F 69% 30.03 in 10.0 mi NE 5.8 mph - N/A   Clear
2:53 AM 30.0 °F 25.2 °F 19.9 °F 66% 29.97 in 10.0 mi NE 4.6 mph - N/A   Clear
3:53 AM 30.0 °F 25.2 °F 19.9 °F 66% 29.96 in 10.0 mi ENE 4.6 mph - N/A   Clear
4:53 AM 30.0 °F 25.2 °F 21.0 °F 69% 29.94 in 10.0 mi NNE 4.6 mph - N/A   Clear
5:53 AM 30.0 °F 26.5 °F 21.0 °F 69% 29.96 in 10.0 mi North 3.5 mph - N/A   Clear
6:53 AM 30.0 °F 25.2 °F 21.0 °F 69% 29.96 in 10.0 mi NNE 4.6 mph - N/A   Clear
7:53 AM 30.9 °F 25.2 °F 21.9 °F 69% 29.94 in 10.0 mi NE 5.8 mph - N/A   Clear
8:53 AM 44.1 °F 40.1 °F 21.9 °F 42% 29.89 in 10.0 mi NE 6.9 mph - N/A   Clear
9:53 AM 51.1 °F - 19.9 °F 29% 29.83 in 10.0 mi South 5.8 mph - N/A   Clear
10:53 AM 59.0 °F - 19.0 °F 21% 29.76 in 10.0 mi Variable 3.5 mph - N/A   Clear
11:53 AM 64.0 °F - 12.0 °F 13% 29.72 in 10.0 mi South 5.8 mph - N/A   Clear
12:53 PM 66.9 °F - 3.9 °F 8% 29.65 in 10.0 mi NW 19.6 mph 33.4 mph N/A   Clear
1:53 PM 68.0 °F - 3.0 °F 8% 29.63 in 10.0 mi West 18.4 mph 34.5 mph N/A   Clear
2:53 PM 64.9 °F - 5.0 °F 9% 29.62 in 10.0 mi West 25.3 mph 42.6 mph N/A   Clear
3:53 PM 61.0 °F - 9.0 °F 13% 29.64 in 10.0 mi West 26.5 mph 38.0 mph N/A   Clear
4:53 PM 61.0 °F - 15.1 °F 17% 29.65 in 10.0 mi West 18.4 mph 38.0 mph N/A   Clear
5:53 PM 55.0 °F - 16.0 °F 22% 29.69 in 10.0 mi WNW 19.6 mph 32.2 mph N/A   Clear
6:53 PM 50.0 °F - 17.1 °F 27% 29.73 in 10.0 mi WNW 9.2 mph - N/A   Clear
7:53 PM 51.1 °F - 18.0 °F 27% 29.72 in 10.0 mi West 9.2 mph 19.6 mph N/A   Clear
8:53 PM 48.0 °F - 19.0 °F 32% 29.68 in 10.0 mi Variable 6.9 mph - N/A   Clear
9:53 PM 50.0 °F - 19.9 °F 31% 29.63 in 10.0 mi Calm Calm - N/A   Clear
10:53 PM 46.9 °F - 21.0 °F 36% 29.61 in 10.0 mi NNW 4.6 mph - N/A   Clear
11:53 PM 46.0 °F 42.5 °F 19.9 °F 35% 29.59 in 10.0 mi West 6.9 mph - N/A   Clear